| time (UTC) | temp C | wind direction | speed KPH | gust KPH | rain 1hr cm | rain 24hr cm | rain mn cm | humidity % | barometer mb |
| 20260504045431 | 10 | 10 | 0.0 | 1.6 | 0.00 | 0.00 | 0.00 | 61 | 1018.5 |
| 20260504044531 | 10 | 16 | 0.0 | 3.2 | 0.00 | 0.00 | 0.00 | 63 | 1018.5 |
| 20260504043631 | 10 | 0 | 0.0 | 0.0 | 0.00 | 0.00 | 0.00 | 65 | 1018.5 |
| 20260504042752 | 11 | 0 | 0.0 | 0.0 | 0.00 | 0.00 | 0.00 | 65 | 1018.2 |
| 20260504041831 | 11 | 304 | 0.0 | 1.6 | 0.00 | 0.00 | 0.00 | 62 | 1018.4 |
| 20260504040931 | 11 | 357 | 0.0 | 4.8 | 0.00 | 0.00 | 0.00 | 55 | 1018.3 |
| 20260504040031 | 11 | 350 | 0.0 | 3.2 | 0.00 | 0.00 | 0.00 | 47 | 1018.4 |
| 20260504035431 | 11 | 352 | 0.0 | 3.2 | 0.00 | 0.00 | 0.00 | 49 | 1018.5 |
| 20260504034531 | 11 | 322 | 0.0 | 3.2 | 0.00 | 0.00 | 0.00 | 48 | 1018.6 |
| 20260504033631 | 11 | 324 | 0.0 | 3.2 | 0.00 | 0.00 | 0.00 | 49 | 1018.5 |
| 20260504032731 | 10 | 319 | 0.0 | 1.6 | 0.00 | 0.00 | 0.00 | 50 | 1018.5 |
| 20260504031830 | 10 | 319 | 0.0 | 1.6 | 0.00 | 0.00 | 0.00 | 52 | 1018.6 |
| 20260504030931 | 9 | 319 | 0.0 | 1.6 | 0.00 | 0.00 | 0.00 | 56 | 1018.6 |
| 20260504030031 | 8 | 323 | 0.0 | 1.6 | 0.00 | 0.00 | 0.00 | 60 | 1018.5 |
| 20260504025430 | 8 | 0 | 0.0 | 0.0 | 0.00 | 0.00 | 0.00 | 67 | 1018.5 |
| 20260504024530 | 8 | 332 | 0.0 | 1.6 | 0.00 | 0.00 | 0.00 | 70 | 1018.6 |
| 20260504023630 | 7 | 335 | 0.0 | 1.6 | 0.00 | 0.00 | 0.00 | 71 | 1018.6 |
| 20260504022751 | 7 | 335 | 0.0 | 1.6 | 0.00 | 0.00 | 0.00 | 72 | 1018.6 |
| 20260504021830 | 7 | 0 | 0.0 | 0.0 | 0.00 | 0.00 | 0.00 | 71 | 1018.5 |
| 20260504020931 | 8 | 318 | 0.0 | 1.6 | 0.00 | 0.00 | 0.00 | 70 | 1018.4 |
| 20260504020030 | 8 | 313 | 0.0 | 1.6 | 0.00 | 0.00 | 0.00 | 69 | 1018.4 |
| 20260504015430 | 8 | 309 | 0.0 | 1.6 | 0.00 | 0.00 | 0.00 | 66 | 1018.2 |
| 20260504014530 | 8 | 300 | 0.0 | 4.8 | 0.00 | 0.00 | 0.00 | 67 | 1018.3 |
| 20260504013630 | 8 | 320 | 0.0 | 4.8 | 0.00 | 0.00 | 0.00 | 59 | 1018.1 |
| 20260504012730 | 8 | 0 | 0.0 | 0.0 | 0.00 | 0.00 | 0.00 | 63 | 1018.0 |
| 20260504011830 | 8 | 0 | 0.0 | 0.0 | 0.00 | 0.00 | 0.00 | 64 | 1018.0 |
| 20260504010930 | 9 | 0 | 0.0 | 0.0 | 0.00 | 0.00 | 0.00 | 62 | 1017.9 |
| 20260504010030 | 10 | 0 | 0.0 | 0.0 | 0.00 | 0.00 | 0.00 | 60 | 1017.8 |
| 20260504005430 | 10 | 0 | 0.0 | 0.0 | 0.00 | 0.00 | 0.00 | 60 | 1017.7 |
| 20260504004551 | 10 | 0 | 0.0 | 0.0 | 0.00 | 0.00 | 0.00 | 58 | 1017.7 |
| 20260504003630 | 11 | 0 | 0.0 | 0.0 | 0.00 | 0.00 | 0.00 | 55 | 1017.6 |
| 20260504002730 | 11 | 0 | 0.0 | 0.0 | 0.00 | 0.00 | 0.00 | 54 | 1017.5 |
| 20260504001830 | 12 | 8 | 0.0 | 1.6 | 0.00 | 0.00 | 0.00 | 52 | 1017.4 |
| 20260504000930 | 12 | 3 | 0.0 | 3.2 | 0.00 | 0.00 | 0.00 | 46 | 1017.5 |
| 20260504000051 | 13 | 337 | 0.0 | 3.2 | 0.00 | 0.00 | 0.00 | 44 | 1017.5 |
| 20260503235451 | 13 | 0 | 0.0 | 0.0 | 0.00 | 0.00 | 0.00 | 39 | 1017.4 |
| 20260503234551 | 14 | 0 | 0.0 | 0.0 | 0.00 | 0.00 | 0.00 | 36 | 1017.3 |
| 20260503233630 | 14 | 290 | 1.6 | 3.2 | 0.00 | 0.00 | 0.00 | 35 | 1017.3 |
| 20260503232729 | 15 | 304 | 1.6 | 3.2 | 0.00 | 0.00 | 0.00 | 33 | 1017.2 |
| 20260503231830 | 15 | 305 | 1.6 | 4.8 | 0.00 | 0.00 | 0.00 | 31 | 1017.3 |
| 20260503230950 | 15 | 308 | 1.6 | 4.8 | 0.00 | 0.00 | 0.00 | 32 | 1017.1 |
| 20260503230029 | 16 | 296 | 1.6 | 9.7 | 0.00 | 0.00 | 0.00 | 28 | 1017.0 |
| 20260503225429 | 16 | 273 | 1.6 | 4.8 | 0.00 | 0.00 | 0.00 | 30 | 1017.1 |
| 20260503224550 | 17 | 298 | 1.6 | 6.4 | 0.00 | 0.00 | 0.00 | 28 | 1017.1 |
| 20260503223629 | 17 | 297 | 1.6 | 4.8 | 0.00 | 0.00 | 0.00 | 26 | 1017.2 |
| 20260503222750 | 18 | 253 | 1.6 | 12.9 | 0.00 | 0.00 | 0.00 | 27 | 1017.3 |
| 20260503221850 | 18 | 261 | 1.6 | 4.8 | 0.00 | 0.00 | 0.00 | 24 | 1017.3 |
| 20260503220929 | 18 | 290 | 1.6 | 9.7 | 0.00 | 0.00 | 0.00 | 25 | 1017.4 |
| 20260503220029 | 18 | 285 | 1.6 | 4.8 | 0.00 | 0.00 | 0.00 | 25 | 1017.4 |
| 20260503215429 | 18 | 279 | 1.6 | 6.4 | 0.00 | 0.00 | 0.00 | 27 | 1017.3 |
| 20260503214529 | 18 | 333 | 3.2 | 12.9 | 0.00 | 0.00 | 0.00 | 25 | 1017.4 |
| 20260503213629 | 18 | 265 | 3.2 | 8.0 | 0.00 | 0.00 | 0.00 | 26 | 1017.5 |
| 20260503212729 | 18 | 285 | 1.6 | 8.0 | 0.00 | 0.00 | 0.00 | 25 | 1017.6 |
| 20260503211829 | 18 | 288 | 3.2 | 8.0 | 0.00 | 0.00 | 0.00 | 25 | 1017.6 |
| 20260503210929 | 18 | 24 | 1.6 | 8.0 | 0.00 | 0.00 | 0.00 | 26 | 1017.6 |
| 20260503210029 | 17 | 149 | 3.2 | 11.3 | 0.00 | 0.00 | 0.00 | 27 | 1017.7 |
| 20260503205429 | 17 | 284 | 4.8 | 11.3 | 0.00 | 0.00 | 0.00 | 29 | 1017.7 |
| 20260503204529 | 17 | 276 | 3.2 | 11.3 | 0.00 | 0.00 | 0.00 | 24 | 1017.9 |
| 20260503203629 | 17 | 260 | 3.2 | 9.7 | 0.00 | 0.00 | 0.00 | 28 | 1017.9 |
| 20260503202729 | 17 | 262 | 1.6 | 8.0 | 0.00 | 0.00 | 0.00 | 25 | 1018.0 |
| 20260503201829 | 17 | 279 | 3.2 | 16.1 | 0.00 | 0.00 | 0.00 | 27 | 1018.1 |
| 20260503200929 | 17 | 262 | 4.8 | 12.9 | 0.00 | 0.00 | 0.00 | 28 | 1018.3 |
| 20260503200049 | 17 | 229 | 3.2 | 16.1 | 0.00 | 0.00 | 0.00 | 26 | 1018.4 |
| 20260503195429 | 17 | 255 | 3.2 | 16.1 | 0.00 | 0.00 | 0.00 | 27 | 1018.5 |
| 20260503194550 | 17 | 147 | 3.2 | 11.3 | 0.00 | 0.00 | 0.00 | 30 | 1018.6 |
| 20260503193629 | 16 | 245 | 4.8 | 14.5 | 0.00 | 0.00 | 0.00 | 28 | 1018.9 |
| 20260503192728 | 16 | 285 | 4.8 | 14.5 | 0.00 | 0.00 | 0.00 | 30 | 1018.8 |
| 20260503191828 | 16 | 257 | 4.8 | 16.1 | 0.00 | 0.00 | 0.00 | 28 | 1019.0 |
| 20260503190950 | 16 | 234 | 4.8 | 22.5 | 0.00 | 0.00 | 0.00 | 29 | 1019.0 |
| 20260503190028 | 16 | 214 | 3.2 | 14.5 | 0.00 | 0.00 | 0.00 | 29 | 1019.3 |
| 20260503185449 | 16 | 286 | 3.2 | 12.9 | 0.00 | 0.00 | 0.00 | 33 | 1019.3 |
| 20260503184528 | 16 | 253 | 4.8 | 16.1 | 0.00 | 0.00 | 0.00 | 32 | 1019.6 |
| 20260503183628 | 16 | 239 | 3.2 | 14.5 | 0.00 | 0.00 | 0.00 | 37 | 1019.6 |
| 20260503182749 | 15 | 202 | 4.8 | 19.3 | 0.00 | 0.00 | 0.00 | 32 | 1019.8 |
| 20260503181828 | 15 | 141 | 3.2 | 9.7 | 0.00 | 0.00 | 0.00 | 37 | 1019.8 |
| 20260503180928 | 15 | 281 | 3.2 | 19.3 | 0.00 | 0.00 | 0.00 | 33 | 1020.0 |
| 20260503180028 | 15 | 251 | 3.2 | 9.7 | 0.00 | 0.00 | 0.00 | 36 | 1020.0 |
| 20260503175428 | 14 | 247 | 6.4 | 17.7 | 0.00 | 0.00 | 0.00 | 36 | 1020.0 |
| 20260503174528 | 15 | 198 | 4.8 | 12.9 | 0.00 | 0.00 | 0.00 | 36 | 1020.1 |
| 20260503173628 | 14 | 225 | 3.2 | 12.9 | 0.00 | 0.00 | 0.00 | 35 | 1020.3 |
| 20260503172728 | 13 | 276 | 4.8 | 17.7 | 0.00 | 0.00 | 0.00 | 35 | 1020.4 |
| 20260503171828 | 13 | 274 | 6.4 | 25.7 | 0.00 | 0.00 | 0.00 | 36 | 1020.5 |
| 20260503170928 | 15 | 156 | 3.2 | 9.7 | 0.00 | 0.00 | 0.00 | 34 | 1020.8 |
| 20260503150927 | 11 | 212 | 3.2 | 11.3 | 0.00 | 0.00 | 0.00 | 41 | 1021.7 |
| 20260503130927 | 7 | 166 | 3.2 | 8.0 | 0.00 | 0.00 | 0.00 | 55 | 1021.7 |
| 20260503080925 | 2 | 8 | 0.0 | 3.2 | 0.00 | 0.00 | 0.00 | 86 | 1018.4 |
| 20260503072725 | 2 | 10 | 0.0 | 3.2 | 0.00 | 0.00 | 0.00 | 86 | 1018.0 |